Other Public Products
Issued by NWS Grand Forks, ND

Home | Current Version | Previous Version | Graphics & Text | Print | Product List | Glossary On
Versions: 1 2 3 4 5 6 7 8 9 10 11 12 13 14 15 16 17 18 19 20 21 22 23 24 25 26 27 28 29 30 31 32 33 34 35 36 37 38 39 40 41 42 43 44 45 46 47 48 49 50
772
FPUS83 KFGF 200310
OPUFGF
PRAIRIE TO PINES WEATHER ROUNDUP
NATIONAL WEATHER SERVICE EASTERN NORTH DAKOTA/GRAND FORKS ND
1000 PM CDT THU APR 19 2018

 **SATELLITE DATA USED TO AUGMENT SKY COVER AT AUTOMATED STATIONS**
 *****  WEATHER ACROSS EASTERN NORTH DAKOTA  *****

CITY           SKY/WX    TMP DP  RH WIND       PRES   REMARKS
GRAND FORKS    FAIR      37  35  92 S7        30.37S
GRND FORKS AFB FAIR      39  33  79 SW7       30.37R
GRND FORKS NWS   N/A     41  35  79 SW1       30.35R
BUXTON           N/A     41  35  78 S5          N/A
DEVILS LAKE    FAIR      37  32  82 CALM      30.36S
FARGO          FAIR      41  30  65 NE3       30.38S
WAHPETON ARPT  CLOUDY    45  34  65 CALM      30.39S
$$

 *****  WEATHER ACROSS CENTRAL AND WESTERN NORTH DAKOTA  *****

CITY           SKY/WX    TMP DP  RH WIND       PRES   REMARKS
JAMESTOWN      FAIR      40  31  70 E5        30.35S
BISMARCK       FAIR      40  33  76 E7        30.33R
MINOT          FAIR      39  34  82 SE3       30.32F
MINOT AFB      FAIR      35  34  97 S5        30.31F
GARRISON         N/A     39  34  82 E9        30.31S
WILLISTON      FAIR      41  34  76 NE5       30.29R
DICKINSON      FAIR      42  31  64 E8        30.24R
HETTINGER      FAIR      44  30  57 SE12      30.26R
$$

 *****  OTHER OBSERVATIONS NORTHEAST NORTH DAKOTA  *****

CITY           SKY/WX    TMP DP  RH WIND       PRES   REMARKS
WALHALLA       FAIR      39  39 100 CALM      30.35S
LANGDON        FAIR      41  41 100 CALM      30.35S
CAVALIER         N/A     45  37  76 CALM      30.35S
GRAFTON        FAIR      39  36  87 S6        30.38S
CANDO          FAIR      37  37 100 SW7       30.37S
FORT TOTTEN      N/A     40  32  72 CALM      29.95S
ROLLA          FAIR      37  37 100 SW6       30.35R
RUGBY          FAIR      39  36  87 S5        30.34S
 ***** THE ABOVE OBSERVATIONS ARE NON NWS ARE NOT QUALITY
        CONTROLLED AND MAY MIS-REPORT RAIN FOR SNOW...
$$

 *****  OTHER OBSERVATIONS SOUTHEAST NORTH DAKOTA *****

CITY           SKY/WX    TMP DP  RH WIND       PRES   REMARKS
COOPERSTOWN    FAIR      36  32  87 SE8       30.37S
VALLEY CITY    FAIR      39  32  75 E3        30.39S
OAKES            N/A     41  32  70 S10       30.37S
GWINNER          N/A     41  34  75 SW9       30.38R
SHEYENNE NWR     N/A     45  35  67 S6        29.95S
BUFFALO          N/A     38  29  71 N5          N/A
WYNDMERE       NOT AVBL
 ***** THE ABOVE OBSERVATIONS ARE NON NWS ARE NOT QUALITY
       CONTROLLED AND MAY MIS-REPORT RAIN FOR SNOW...
$$

  *****  WEATHER ACROSS NORTHERN MINNESOTA  *****

CITY           SKY/WX    TMP DP  RH WIND       PRES   REMARKS
FLAG ISLAND    FAIR      36  18  48 SE5       30.35F
WARROAD        FAIR      39  28  65 SW5       30.37S
ROSEAU         FAIR      43  30  61 SW7       30.36S
HALLOCK        MOCLDY    45  37  76 S10       30.36S
THF RVR FALLS  FAIR      42  33  70 S3        30.39R
HALSTAD        NOT AVBL
FOSSTON        FAIR      36  23  60 CALM      30.39S
BAUDETTE       FAIR      37  24  59 CALM      30.36S
WASKISH        FAIR      34  19  55 CALM      30.37S
CROOKSTON      FAIR      43  36  75 CALM      30.38F
$$
  *****  WEATHER ACROSS CENTRAL AND WEST MINNESOTA  *****

CITY           SKY/WX    TMP DP  RH WIND       PRES   REMARKS
BEMIDJI        FAIR      35  24  63 CALM      30.37S
PARK RAPIDS    FAIR      40  25  55 CALM      30.37F
WADENA         FAIR      36  28  75 S6        30.40S
DETROIT LAKES  FAIR      43  28  56 CALM      30.40S
MOORHEAD       FAIR      45  30  57 E3        30.39S
FERGUS FALLS   FAIR      43  36  75 SE8       30.38R
ELBOW LAKE     FAIR      38  32  78 SE7       30.41R
MORRIS MN      FAIR      37  32  81 S7        30.41R
STAPLES        FAIR      37  25  60 SW6       30.40S
WHEATON        FAIR      43  34  70 S8        30.42R
$$
  *****  WEATHER ELSEWHERE ACROSS MINNESOTA  *****

CITY           SKY/WX    TMP DP  RH WIND       PRES   REMARKS
DULUTH         FAIR      41  19  41 W6        30.38S
INTRNTL FALLS  FAIR      31  22  69 CALM      30.36F
ELY            FAIR      32  16  51 CALM      30.37S
CLOQUET        FAIR      39  10  30 W5        30.39S
BRAINERD       FAIR      36  21  54 S3        30.40S
HIBBING        FAIR      29  17  61 CALM      30.37S
ALEXANDRIA     FAIR      41  26  55 S7        30.42R
SAINT CLOUD    FAIR      38  30  73 SW3       30.43R
MINNEAPOLIS    FAIR      43  23  45 W5        30.45S
$$

  *****  WEATHER ACROSS SOUTH DAKOTA  *****

CITY           SKY/WX    TMP DP  RH WIND       PRES   REMARKS
SIOUX FALLS    MOCLDY    34  28  79 E7        30.42R
BROOKINGS      FAIR      36  29  75 SE7       30.42R
WATERTOWN      FAIR      38  28  67 SE3       30.39R
HURON          FAIR      36  28  73 SE6       30.40R
SISSETON         N/A     38  33  82 S6        30.39R
ABERDEEN       FAIR      36  28  73 S8        30.40R
MITCHELL       FAIR      36  28  73 SE9       30.41R
PIERRE         FAIR      39  29  67 SE12      30.33R
MOBRIDGE       FAIR      41  31  67 SE9       30.31R
RAPID CITY     FAIR      47  31  53 SE18      30.16R
$$

  *****  SOME WEATHER IN NEARBY STATES *****

CITY           SKY/WX    TMP DP  RH WIND       PRES   REMARKS
GLASGOW MT     FAIR      48  36  63 E22       30.16R
GREAT FALLS MT FAIR      49  32  52 N8        30.05R
CHEYENNE WY    FAIR      46  23  40 SE24G30   30.02S
SCOTTSBLUFF NE FAIR      49  31  49 SE21G28   30.09R
OMAHA NE       FAIR      49  26  41 E12       30.39R
DES MOINES IA  FAIR      44  26  49 NE9       30.43S
DAVENPORT IA   FAIR      40  26  57 NE5       30.47R
CHICAGO IL     FAIR      42  24  49 W6        30.42S
EAU CLAIRE WI  FAIR      35  22  58 CALM      30.43F
LA CROSSE WI   FAIR      36  28  73 CALM      30.45S
$$

  *****  SOME NATIONAL WEATHER *****

CITY           SKY/WX    TMP DP  RH WIND       PRES   REMARKS
LA GUARDIA NY  FAIR      41  25  53 NW16G23   30.00R
RALEIGH NC     FAIR      47  30  51 N8        30.19R
ATLANTA GA     MOCLDY    51  34  52 NW10      30.18R
NEW ORLEANS LA FAIR      65  46  50 N15G22    30.20R
OKLAHOMA CITY  FAIR      53  33  46 E8        30.29R
ALBUQUERQUE NM MOCLDY    64  26  23 SE32G40   29.92S
SALT LAKE CITY MOCLDY    54  29  38 N14       29.72R
LOS ANGELES CA FAIR      57  48  72 W13       30.01S
BOISE ID       FAIR      60  28  29 N13G28    29.91R
SEATTLE WA     MOCLDY    57  36  45 N7        30.23S
$$

*** WEATHER ACROSS MANITOBA...SASKATCHEWAN AND ONTARIO ***
                ***ONTARIO***

CITY           SKY/WX    TMP DP  RH WIND       PRES   REMARKS
GERALDTON      PTCLDY    28  16  59 W3        30.32S
THUNDER BAY    MOCLDY    32  27  80 E2        30.36R
SIOUX LOOKOUT  CLEAR     32  12  43 S3        30.33S
TORONTO        PTCLDY    34  21  60 NW10      30.18R
BIG TROUT LK   PTCLDY    37  25  60 E3        30.33F
PICKLE LAKE    NOT AVBL
DRYDEN         CLEAR     45  10  24 SW6       30.34S
KENORA         CLEAR     45   9  23 S7        30.35S
$$
                *** MANITOBA***

CITY           SKY/WX    TMP DP  RH WIND       PRES   REMARKS
BRANDON        PTCLDY    36  32  87 N6        30.34S
DAUPHIN        CLEAR     37  32  81 SW3       30.35S
ISLAND LAKE    NOT AVBL
PILOT MOUND      N/A     39  34  81 S3          N/A
THE PAS        PTCLDY    39  25  56 SE3       30.29S
THOMPSON       PTCLDY    43  18  36 S5        30.28F
WINNIPEG       PTCLDY    43  36  75 CALM      30.35S
LYNN LAKE      CLEAR     43  21  42 S6        30.17S
CHURCHILL      MOCLDY    30  25  80 SE12      30.31S WCI  21
GILLAM         PTCLDY    39  18  41 S6        30.33S
$$
                ***SASKATCHEWAN***

CITY           SKY/WX    TMP DP  RH WIND       PRES   REMARKS
ESTEVAN        PTCLDY    36  27  69 SE8       30.31S
KINDERSLEY     PTCLDY    45  37  76 SE17G24   30.10S
LLOYDMINSTER   PTCLDY    39  32  75 SE10      30.07F
PRINCE ALBERT  PTCLDY    37  30  75 SE5       30.25S
REGINA         PTCLDY    39  32  75 E14       30.29F
YORKTON        CLEAR     34  27  75 SE6       30.34S



USA.gov is the U.S. government's official web portal to all federal, state and local government web resources and services.